Location: downtown San Diego
(32.7310°N, 117.1990°W)
Time: 15:57:04
(UTC-07:00)

ASTRO E2 - Pass Details

Date: 14 June 2018
Orbit: 513 x 519 km, 31.4° (Epoch: 20 June)

Event Time Altitude Azimuth Distance (km) Brightness Sun altitude
Rises 20:21:46 0° 270° (W) 2,611 7.4 -5.1°
Reaches altitude 10° 20:24:00 10° 268° (W) 1,725 6.3 -5.5°
Maximum altitude 20:27:58 72° 184° (S) 539 2.7 -6.2°
Drops below altitude 10° 20:31:56 10° 100° (E) 1,728 4.8 -6.9°
Enters shadow 20:32:35 - 99° (E) 1,985 5.1 -7.1°
